This is the latest recevied weather packets stored in our database for station/object DL2AKT-20. If no packets are shown the sender has not sent any weather packets the latest 10 day(s).
| Time | Temp. | Humidity | Pressure | Rain* | Wind** | Luminosity | Snow |
|---|---|---|---|---|---|---|---|
| 1777579467 | 15.56° C | 32% | 1031.8 hPa | - | - | - | - |
| 1777578567 | 16.11° C | 31% | 1031.7 hPa | - | - | - | - |
| 1777577667 | 16.67° C | 30% | 1031.7 hPa | - | - | - | - |
| 1777576767 | 17.22° C | 30% | 1031.6 hPa | - | - | - | - |
| 1777575866 | 16.67° C | 30% | 1031.6 hPa | - | - | - | - |
| 1777574969 | 17.78° C | 29% | 1031.4 hPa | - | - | - | - |
| 1777574069 | 17.78° C | 29% | 1031.2 hPa | - | - | - | - |
| 1777573168 | 17.22° C | 29% | 1031.1 hPa | - | - | - | - |
| 1777572268 | 17.22° C | 28% | 1031.1 hPa | - | - | - | - |
| 1777571368 | 17.78° C | 27% | 1031.2 hPa | - | - | - | - |
| 1777570468 | 18.33° C | 27% | 1031.1 hPa | - | - | - | - |
| 1777569568 | 20° C | 26% | 1031.1 hPa | - | - | - | - |
| 1777568668 | 17.78° C | 28% | 1031.1 hPa | - | - | - | - |
| 1777567768 | 18.89° C | 26% | 1031.2 hPa | - | - | - | - |
| 1777566868 | 18.33° C | 26% | 1031.2 hPa | - | - | - | - |
| 1777565968 | 18.89° C | 25% | 1031.3 hPa | - | - | - | - |
| 1777565067 | 19.44° C | 25% | 1031.4 hPa | - | - | - | - |
| 1777564167 | 19.44° C | 25% | 1031.4 hPa | - | - | - | - |
| 1777563267 | 19.44° C | 25% | 1031.2 hPa | - | - | - | - |
| 1777562367 | 19.44° C | 25% | 1031.2 hPa | - | - | - | - |
| 1777561467 | 18.89° C | 24% | 1031.4 hPa | - | - | - | - |
| 1777560567 | 20° C | 23% | 1031.3 hPa | - | - | - | - |
| 1777559667 | 18.33° C | 24% | 1031.5 hPa | - | - | - | - |
| 1777558767 | 18.33° C | 23% | 1031.7 hPa | - | - | - | - |
| 1777557866 | 17.78° C | 23% | 1031.9 hPa | - | - | - | - |
* Rain since midnight (hover to see other rain measurements)
** Current wind speed in m/s (hover to see current wind gust speed)